This is the latest recevied weather packets stored in our database for station/object KC5DP. If no packets are shown the sender has not sent any weather packets the latest 10 day(s).
| Time | Temp. | Humidity | Pressure | Rain* | Wind** | Luminosity | Snow |
|---|---|---|---|---|---|---|---|
| 1777852061 | 22.78° C | 52% | 1016.7 hPa | 0 mm | - | 28 W/m² | - |
| 1777851759 | 22.78° C | 47% | 1016.8 hPa | 0 mm | - | 43 W/m² | - |
| 1777851456 | 22.78° C | 46% | 1016.8 hPa | 0 mm | - | 28 W/m² | - |
| 1777851151 | 23.89° C | 43% | 1017 hPa | 0 mm | - | 29 W/m² | - |
| 1777850848 | 23.89° C | 40% | 1017 hPa | 0 mm | - | 38 W/m² | - |
| 1777850546 | 23.89° C | 42% | 1017.1 hPa | 0 mm | - | 50 W/m² | - |
| 1777850244 | 23.89° C | 41% | 1017.1 hPa | 0 mm | - | 33 W/m² | - |
| 1777849940 | 23.89° C | 39% | 1017.1 hPa | 0 mm | - | 46 W/m² | - |
| 1777849636 | 23.89° C | 43% | 1017.1 hPa | 0 mm | - | 36 W/m² | - |
| 1777849334 | 23.89° C | 42% | 1016.9 hPa | 0 mm | - | 34 W/m² | - |
| 1777849032 | 23.89° C | 39% | 1017 hPa | 0 mm | - | 34 W/m² | - |
| 1777848731 | 23.89° C | 40% | 1017.1 hPa | 0 mm | - | 35 W/m² | - |
| 1777848429 | 23.89° C | 43% | 1016.9 hPa | 0 mm | - | 35 W/m² | - |
| 1777848127 | 23.89° C | 40% | 1017.2 hPa | 0 mm | - | 36 W/m² | - |
| 1777847824 | 23.89° C | 42% | 1017 hPa | 0 mm | - | 37 W/m² | - |
| 1777847521 | 23.89° C | 40% | 1017 hPa | 0 mm | - | 53 W/m² | - |
| 1777847218 | 23.89° C | 43% | 1017.1 hPa | 0 mm | - | 40 W/m² | - |
| 1777846915 | 23.89° C | 39% | 1017.3 hPa | 0 mm | - | 40 W/m² | - |
| 1777846614 | 23.89° C | 39% | 1017.5 hPa | 0 mm | - | 56 W/m² | - |
| 1777846311 | 23.89° C | 41% | 1017.2 hPa | 0 mm | - | 79 W/m² | - |
| 1777846007 | 24.44° C | 37% | 1017.4 hPa | 0 mm | - | 64 W/m² | - |
| 1777845704 | 24.44° C | 37% | 1017.5 hPa | 0 mm | - | 69 W/m² | - |
| 1777845401 | 23.89° C | 39% | 1017.5 hPa | 0 mm | - | 53 W/m² | - |
| 1777845097 | 24.44° C | 37% | 1017.4 hPa | 0 mm | - | 50 W/m² | - |
| 1777844797 | 23.89° C | 40% | 1017.5 hPa | 0 mm | - | 44 W/m² | - |
* Rain latest hour (hover to see other rain measurements)
** Current wind speed in m/s (hover to see current wind gust speed)